Lapse_Rate
7.4 7.4 7.4 7.4 7.4 7.1 7.1 7.1 7.0 6.8 6.6 6.4 6.3 6.3 6.3 6.3 6.3 6.3 6.3 6.4 6.3 6.3 6.2 6.2 6.2 6.1 6.1 6.2 6.1 6.0 6.0 6.0
7.4 7.5 7.4 7.4 7.3 7.1 7.0 7.0 6.7 6.7 6.5 6.3 6.3 6.4 6.4 6.3 6.2 6.3 6.5 6.4 6.3 6.3 6.1 6.1 6.1 6.1 6.1 5.9 5.9 6.0 5.9 5.9
7.5 7.4 7.5 7.3 7.1 7.0 6.9 6.7 6.5 6.3 6.3 6.4 6.5 6.5 6.5 6.4 6.3 6.4 6.5 6.5 6.3 6.2 6.2 6.2 6.2 6.3 6.3 6.2 6.2 6.1 6.1 6.0
7.5 7.3 7.2 6.9 6.7 6.7 6.6 6.5 6.4 6.4 6.3 6.3 6.4 6.5 6.6 6.5 6.3 6.4 6.5 6.4 6.2 6.1 6.4 6.3 6.4 6.4 6.3 6.5 6.6 6.5 6.4 6.2
7.0 6.9 6.7 6.6 6.6 6.8 6.6 6.5 6.4 6.3 6.3 6.5 6.6 6.6 6.4 6.3 6.2 6.1 6.2 6.2 6.2 6.1 6.2 6.3 6.4 6.2 6.3 6.6 6.6 6.6 6.7 6.5
6.9 7.0 7.1 7.0 7.0 6.8 6.7 6.5 6.5 6.7 6.8 6.9 6.7 6.8 6.6 6.4 6.3 6.1 6.0 6.0 6.1 6.3 6.2 6.3 6.2 6.2 6.3 6.4 6.7 6.7 6.7 6.6
7.2 7.1 7.0 6.9 6.7 6.6 6.4 6.5 6.7 6.7 6.9 6.8 6.6 6.2 6.0 6.4 6.4 6.2 6.3 6.2 6.2 6.1 6.3 6.0 6.1 5.9 6.0 6.1 6.4 6.7 6.8 6.8
6.8 6.8 6.8 6.8 6.7 6.6 6.6 6.4 6.2 6.7 6.2 6.1 6.0 5.7 5.9 5.9 6.4 6.4 6.5 6.2 6.2 6.2 6.0 5.9 5.7 5.7 5.8 6.1 6.1 6.1 6.1 6.2
6.8 7.0 7.0 6.9 7.0 6.4 5.9 5.6 6.5 6.7 6.2 6.3 6.1 6.1 6.4 6.3 6.3 6.3 6.4 6.3 6.3 6.1 5.9 5.8 5.8 6.0 5.9 5.8 5.8 5.7 5.7 5.7
6.9 6.8 6.7 6.4 5.9 6.0 5.4 6.3 6.5 6.3 6.6 6.7 6.4 6.5 6.3 6.2 6.3 6.5 6.5 6.5 6.4 6.1 6.1 6.1 5.8 5.8 5.9 5.9 5.7 5.6 5.5 5.6
7.0 6.9 6.7 6.6 6.5 6.1 6.0 6.7 7.0 6.7 6.7 6.7 6.6 6.5 6.4 6.6 6.6 6.7 6.5 6.4 6.3 6.3 6.0 6.0 5.8 5.8 5.8 5.8 5.8 6.0 5.8 5.6
7.0 6.8 6.7 6.7 6.5 6.3 6.3 6.3 6.4 6.6 6.6 6.7 6.8 7.0 7.0 6.9 6.8 6.7 6.5 6.3 6.1 5.9 5.8 5.7 5.6 5.7 6.0 5.7 5.8 5.9 5.8 5.8
6.9 7.0 7.0 7.1 6.9 6.6 6.3 6.2 6.4 6.4 6.6 6.6 6.5 6.6 6.7 6.7 6.5 6.2 6.0 5.8 5.8 5.8 5.7 5.6 5.8 5.6 5.7 5.7 5.7 5.6 5.9 5.9
7.2 7.2 7.0 6.7 6.6 6.2 6.2 6.4 6.3 6.1 6.1 6.3 6.4 6.6 6.6 6.5 6.5 6.4 6.5 6.4 6.2 6.4 6.0 5.8 5.6 5.5 5.9 5.9 5.4 5.2 4.4 3.7
7.1 7.2 6.9 6.6 6.4 6.5 6.4 6.2 5.9 6.2 6.3 6.3 6.4 6.5 6.6 6.6 6.5 6.5 6.4 6.2 5.9 5.8 5.7 5.6 5.4 5.1 5.2 4.9 4.8 4.5 4.2 4.3
6.9 6.7 6.5 6.4 6.4 6.4 6.2 6.2 6.3 6.5 6.6 6.6 6.8 6.8 6.6 6.4 6.3 6.1 5.9 5.7 5.4 5.2 5.1 4.9 4.8 4.6 4.4 4.1 3.8 3.9 3.9 3.8
6.7 6.6 6.5 6.4 6.2 6.0 6.0 6.3 6.3 6.3 6.4 6.4 6.5 6.2 6.2 6.1 5.9 5.7 5.5 5.3 5.1 5.0 4.8 4.8 4.5 4.4 4.0 3.8 3.9 4.1 4.1 3.9
6.5 6.4 6.3 6.0 5.8 5.8 5.9 6.0 6.1 6.0 5.8 6.1 5.9 6.0 6.0 5.8 5.6 5.4 5.2 5.0 4.8 4.6 4.5 4.3 3.8 3.7 3.9 3.9 3.9 4.0 4.3 4.7
6.3 6.1 6.0 5.9 5.9 5.9 5.9 6.0 5.9 5.7 6.0 6.3 6.1 6.1 6.1 5.8 5.4 5.0 4.8 4.5 4.2 4.3 4.3 4.1 4.0 3.9 3.9 4.2 4.1 4.3 5.0 5.1
6.1 5.9 5.8 5.7 5.7 5.8 6.0 5.7 5.6 5.6 6.0 5.9 5.8 5.6 5.4 5.1 4.8 4.7 4.5 4.5 4.5 4.3 4.0 3.9 4.0 4.2 4.1 4.3 4.8 5.4 5.1 5.5
Wind_Speed
16 15 13 13 11 11 11 10 9 8 7 7 9 9 9 8 8 7 6 6 6 5 7 7 7 9 10 10 9 8 9 9
14 15 14 13 12 10 9 8 7 7 6 6 7 7 5 5 6 6 5 5 5 5 6 7 8 9 10 13 13 9 12 10
11 11 10 10 10 9 8 7 6 7 6 5 6 5 4 4 4 3 4 5 5 5 5 7 8 3 5 11 12 13 13 11
9 9 9 8 7 9 7 7 6 5 5 5 3 1 1 3 1 2 3 4 3 4 4 2 6 11 10 6 12 12 10 9
8 8 7 8 7 6 6 6 5 5 3 2 2 2 2 3 2 1 0 2 2 3 2 6 7 9 9 10 11 11 9 8
8 8 8 6 6 6 5 4 4 3 3 2 3 4 1 3 2 1 1 3 3 4 4 5 7 6 6 7 8 9 9 8
11 9 8 8 6 6 4 2 1 2 1 2 2 3 1 3 2 2 2 2 3 5 6 7 7 7 8 7 7 7 8 8
10 10 10 9 8 7 7 6 4 3 4 3 5 8 6 4 2 3 2 3 4 7 8 8 8 8 7 6 7 8 8 9
11 11 12 12 14 12 10 7 4 1 3 3 4 6 4 2 1 4 3 3 4 5 6 6 7 8 7 10 11 9 9 11
11 9 13 12 11 9 9 5 5 4 3 3 7 6 3 2 3 2 5 5 6 6 6 6 6 7 7 8 11 12 12 12
12 12 12 10 10 9 7 8 6 5 5 5 5 5 3 2 4 5 5 5 6 6 5 6 7 7 8 10 9 10 15 14
12 11 10 8 8 9 8 7 6 5 5 5 5 7 5 4 5 5 5 5 4 6 7 8 7 7 10 10 9 10 13 9
13 13 13 9 8 8 7 6 5 4 7 7 5 6 6 6 4 4 6 5 7 7 8 11 8 7 10 9 10 12 5 8
12 11 11 9 7 5 3 5 4 6 6 6 6 5 6 5 7 7 7 7 9 7 7 7 7 5 8 11 10 10 10 5
12 12 12 7 5 5 5 6 6 4 3 3 4 4 6 6 7 8 9 9 8 5 4 5 6 6 6 7 8 10 11 11
12 11 9 6 3 6 5 4 4 4 3 3 3 4 7 8 8 9 9 9 6 4 4 5 5 7 7 7 8 10 11 11
9 10 10 8 8 8 6 7 5 4 3 4 5 7 9 11 12 12 11 8 5 4 4 4 6 7 8 7 7 7 9 9
8 11 11 10 11 11 10 8 6 5 5 6 6 8 11 15 12 13 12 8 6 5 3 7 8 7 5 5 6 7 8 9
11 12 12 10 10 10 9 8 7 6 7 7 10 9 9 11 16 12 10 8 6 4 5 8 7 6 6 6 6 6 7 8
11 11 11 10 9 8 8 8 5 5 6 7 7 8 9 16 15 14 10 9 5 7 9 5 6 6 8 8 7 7 8 8
Wind_Direction
147 154 145 134 134 132 123 123 116 109 117 125 122 116 121 117 110 107 96 74 61 51 47 37 25 22 12 8 2 355 352 14
148 151 152 152 148 129 120 117 118 128 132 131 129 129 128 120 127 73 52 57 31 17 9 2 1 360 5 358 343 283 353 334
138 145 144 150 145 126 129 134 132 147 140 133 161 149 164 172 76 51 19 5 357 354 352 346 333 271 24 356 311 356 336 346
146 144 137 145 136 151 150 143 164 161 157 164 171 134 337 312 274 6 34 10 355 12 15 324 305 354 353 326 353 346 335 336
151 132 142 159 135 150 151 150 150 160 150 182 150 262 261 246 236 191 128 38 5 357 8 22 3 347 345 342 342 332 348 343
145 148 154 140 148 149 136 154 148 168 157 183 231 239 245 294 319 310 271 7 350 348 5 5 348 347 341 339 341 335 347 334
151 148 148 146 144 122 113 100 121 352 270 179 283 303 350 292 314 289 312 313 347 331 337 344 336 330 329 329 328 328 329 330
144 152 146 130 100 96 71 35 3 348 322 7 35 19 343 274 249 284 283 327 342 325 349 339 328 321 319 319 308 313 315 318
158 147 138 122 95 77 71 48 342 244 233 96 113 184 206 180 165 265 319 350 334 349 337 327 314 314 304 298 298 296 301 305
151 149 138 124 125 143 54 116 179 197 129 151 158 169 150 202 222 356 12 10 358 348 341 326 320 313 311 302 303 301 298 288
160 146 150 136 134 120 156 153 141 180 162 144 119 108 79 50 47 43 11 359 358 342 343 331 317 306 306 304 298 297 296 290
151 153 148 141 155 154 149 156 151 145 116 90 82 76 65 52 60 38 353 346 339 342 323 321 306 304 306 301 298 296 299 282
160 154 165 170 176 160 160 161 145 117 90 75 73 68 61 42 29 3 340 333 329 316 309 307 309 328 305 312 298 285 280 288
156 159 164 172 160 139 134 136 101 94 95 84 69 59 38 14 356 345 342 326 316 306 307 308 296 332 316 309 308 303 287 347
157 151 150 129 116 131 121 116 128 145 102 77 65 35 8 349 336 332 325 315 308 298 293 306 311 308 333 313 317 313 321 300
131 127 120 104 115 99 71 56 82 63 68 60 6 346 338 331 322 312 308 305 297 276 286 308 312 320 316 310 296 299 299 301
128 124 110 102 101 101 105 94 93 84 52 347 329 320 314 313 311 301 293 280 260 258 258 299 310 307 305 312 304 296 290 296
131 117 111 109 101 94 90 86 67 29 10 339 337 324 320 313 307 299 289 266 235 227 251 302 302 295 300 297 296 306 309 310
129 123 115 105 94 89 86 80 59 30 359 349 334 327 324 320 320 298 273 252 239 231 276 281 273 285 294 301 297 299 303 300
136 127 117 109 101 94 83 66 58 29 3 352 335 328 323 324 312 297 268 239 241 252 273 270 278 272 284 291 297 296 298 299